This demonstration page uses our WeatherBlox Daily Observations layout. Learn more.

Left ArrowRight Arrow

41.12389, -100.76542

Hourly Observations for December 28, 2016

Temp ( °F °C ) Dew Point ( °F °C ) Humidity (%) Winds ( mph kmh ) Pressure ( in mb ) Visibility ( mi km ) Precip ( " mm )
12:53 am 00:53 Clear 25 -3.9 20 -6.7 81 81 Calm 29.92 1013 10 16 0.00 0.00
1:53 am 01:53 Clear 26 -3.3 22 -5.6 84 84 S 5 7 29.90 1013 10 16 0.00 0.00
2:53 am 02:53 Clear 27 -2.8 22 -5.6 81 81 NNW 6 9 29.88 1012 10 16 0.00 0.00
3:53 am 03:53 Mostly Cloudy 33 0.6 24 -4.4 70 70 N 5 7 29.88 1012 10 16 0.00 0.00
4:53 am 04:53 Mostly Clear 36 2.2 23 -5 59 59 NW 8 13 29.91 1013 10 16 0.00 0.00
5:53 am 05:53 Partly Cloudy 44 6.7 24 -4.4 45 45 NW 16 26 29.93 1014 10 16 0.00 0.00
6:53 am 06:53 Clear 39 3.9 23 -5 53 53 NW 10 17 29.99 1016 10 16 0.00 0.00
7:53 am 07:53 Clear 38 3.3 22 -5.6 52 52 NW 10 17 29.99 1016 10 16 0.00 0.00
8:53 am 08:53 Sunny 38 3.3 20 -6.7 48 48 NW 12 19 30.04 1017 10 16 0.00 0.00
9:53 am 09:53 Sunny 42 5.6 21 -6.1 43 43 WNW 14 22 30.05 1018 10 16 0.00 0.00
10:53 am 10:53 Sunny 43 6.1 21 -6.1 42 42 NW 15 24 30.08 1019 10 16 0.00 0.00
11:53 am 11:53 Sunny 47 8.3 15 -9.4 28 28 WNW 21 33 30.06 1018 10 16 0.00 0.00
12:53 pm 12:53 Sunny 49 9.4 10 -12.2 21 21 NW 24 39 30.06 1018 10 16 0.00 0.00
1:53 pm 13:53 Sunny 49 9.4 8 -13.3 19 19 NW 16 26 30.05 1018 10 16 0.00 0.00
2:53 pm 14:53 Sunny 48 8.9 7 -13.9 19 19 NW 24 39 30.05 1018 10 16 0.00 0.00
3:53 pm 15:53 Mostly Sunny 45 7.2 12 -11.1 26 26 NW 26 43 30.08 1019 10 16 0.00 0.00
4:53 pm 16:53 Sunny 41 5 11 -11.7 29 29 NW 15 24 30.12 1020 10 16 0.00 0.00
5:53 pm 17:53 Clear 38 3.3 7 -13.9 27 27 NNW 14 22 30.15 1021 10 16 0.00 0.00
6:53 pm 18:53 Clear 34 1.1 9 -12.8 35 35 NW 12 19 30.20 1023 10 16 0.00 0.00
7:53 pm 19:53 Clear 30 -1.1 10 -12.2 43 43 WNW 10 17 30.25 1024 10 16 0.00 0.00
8:53 pm 20:53 Clear 29 -1.7 11 -11.7 47 47 WNW 9 15 30.28 1026 10 16 0.00 0.00
9:53 pm 21:53 Clear 29 -1.7 14 -10 54 54 W 12 19 30.30 1026 10 16 0.00 0.00
10:53 pm 22:53 Clear 27 -2.8 14 -10 58 58 W 12 19 30.33 1027 10 16 0.00 0.00
11:53 pm 23:53 Clear 25 -3.9 14 -10 63 63 WNW 12 19 30.35 1028 10 16 0.00 0.00

Powered by AerisWeather